Simultaneous Nadir Overpasses (SNOs) Predictions

Prediction of SNOs between NOAA-19 and METOP-C Satellite Orbit:

Table of predicted SNOs for the next 14.0 days since TLE Epoch: 2/20/2021
Index Date (NOAA-19) Time (NOAA-19) Lat,Lon (NOAA-19) SZA (NOAA-19 ) Date (METOP-C) Time (METOP-C) Lat,Lon (METOP-C) SZA (METOP-C ) Distance(km) Time Diff (sec)
1 02/26/2021 03:22:45 80.40, 155.94 89.79 02/26/2021 03:23:55 80.38, 156.01 89.80 2.51 70
2 02/26/2021 04:13:45 -80.40, -36.71 90.22 02/26/2021 04:14:37 -80.39, -36.65 90.22 1.78 52
3 02/26/2021 05:04:44 80.38, 130.93 89.77 02/26/2021 05:05:16 80.40, 130.86 89.80 2.60 32
4 02/26/2021 05:55:45 -80.39, -62.06 90.25 02/26/2021 05:55:59 -80.37, -62.13 90.26 2.20 14
5 02/26/2021 06:46:45 80.39, 105.23 89.75 02/26/2021 06:46:38 80.39, 105.39 89.75 2.93 7
6 02/26/2021 07:37:45 -80.38, -87.41 90.27 02/26/2021 07:37:20 -80.39, -87.28 90.26 2.60 25
7 02/26/2021 08:28:45 80.38, 79.87 89.72 02/26/2021 08:28:00 80.38, 79.91 89.71 0.90 45



Historial Predications of SNOs between NOAA-19 and METOP-C
